Location: Oberkirch
(48.5323°N, 8.0787°E)
Time: 07:34:54
(UTC+00:00)

CZ-4 R/B - Pass Details

Date: 08 November 2025
Orbit: 675 x 744 km, 98.7° (Epoch: 12 December)

Event Time Altitude Azimuth Distance (km) Brightness Sun altitude
Rises 05:28:44 0° 8° (N) 3,180 7.1 -9.6°
Reaches altitude 10° 05:31:11 10° 359° (N) 2,244 6.3 -9.2°
Maximum altitude 05:35:38 35° 295° (WNW) 1,168 4.5 -8.5°
Drops below altitude 10° 05:39:58 10° 231° (SW) 2,193 6.0 -7.8°
Sets 05:42:21 0° 222° (SW) 3,096 6.9 -7.4°
